Weather History for Hays, KS

Change the Weather History Date:

Friday, May 2, 2014

  Actual Average Record
Temperature  
Mean Temperature 52 °F -  
Max Temperature 75 °F 67 °F 89 °F (2012)
Min Temperature 30 °F 44 °F 26 °F (2005)
Degree Days  
Heating Degree Days 12    
Growing Degree Days 2 (Base 50)    
Moisture  
Dew Point 27 °F    
Average Humidity 39    
Maximum Humidity 70    
Minimum Humidity 18    
Precipitation  
Precipitation 0.00 in - - ()
Sea Level Pressure  
Sea Level Pressure 29.95 in    
Wind  
Wind Speed 7 mph (West)    
Max Wind Speed 16 mph    
Max Gust Speed 23 mph    
Visibility 10 miles    
Events      
Averages and records for this station are not official NWS values.
T = Trace of Precipitation, MM = Missing Value Source: NWS Daily Summary

Daily Weather History Graph

Daily Weather History Graph

Search for Another Location

Airport:

Trip Planner

Search our weather history database for the weather conditions in past years. The results will help you decide how hot, cold, wet, or windy it might be!

Date:

Astronomy

May. 02, 2014 Rise Set
Actual Time 6:38 AM CDT 8:30 PM CDT
Civil Twilight 6:09 AM CDT 8:59 PM CDT
Nautical Twilight 5:34 AM CDT 9:34 PM CDT
Astronomical Twilight 4:56 AM CDT 10:12 PM CDT
Moon 9:17 AM CDT (5/2) 11:53 PM CDT (5/2)
Length of Visible Light 14h 50m
Length of Day
13h 52m
Waxing Crescent, 12% of the Moon is Illuminated
May 2
Waxing Crescent
May 6
First Quarter
May 14
Full
May 21
Last Quarter
May 28
New

Hourly Weather History & Observations

Time (CDT) Temp. Windchill Dew Point Humidity Pressure Visibility Wind Dir Wind Speed Gust Speed Precip Events Conditions
12:15 AM 37.4 °F 31.4 °F 21.2 °F 52% 30.06 in 10.0 mi WNW 8.1 mph - N/A   Clear
12:35 AM 37.4 °F 32.8 °F 23.0 °F 56% 30.06 in 10.0 mi NW 5.8 mph - N/A   Clear
12:55 AM 37.4 °F 32.8 °F 23.0 °F 56% 30.06 in 10.0 mi NW 5.8 mph - N/A   Clear
1:15 AM 37.4 °F 32.8 °F 23.0 °F 56% 30.06 in 10.0 mi NW 5.8 mph - N/A   Clear
1:35 AM 35.6 °F 30.7 °F 23.0 °F 60% 30.06 in 10.0 mi NW 5.8 mph - N/A   Clear
1:55 AM 35.6 °F 30.7 °F 21.2 °F 56% 30.06 in 10.0 mi NW 5.8 mph - N/A   Clear
2:15 AM 35.6 °F 30.7 °F 21.2 °F 56% 30.06 in 10.0 mi NNW 5.8 mph - N/A   Clear
2:35 AM 35.6 °F 29.9 °F 21.2 °F 56% 30.05 in 10.0 mi NW 6.9 mph - N/A   Clear
2:55 AM 33.8 °F 29.6 °F 21.2 °F 60% 30.05 in 10.0 mi NW 4.6 mph - N/A   Clear
3:15 AM 30.2 °F 24.3 °F 21.2 °F 69% 30.05 in 10.0 mi West 5.8 mph - N/A   Clear
3:35 AM 30.2 °F 24.3 °F 21.2 °F 69% 30.05 in 10.0 mi WNW 5.8 mph - N/A   Clear
4:15 AM 30.2 °F 24.3 °F 21.2 °F 69% 30.04 in 10.0 mi NW 5.8 mph - N/A   Clear
4:35 AM 30.2 °F 22.6 °F 21.2 °F 69% 30.04 in 10.0 mi West 8.1 mph - N/A   Clear
4:55 AM 33.8 °F 27.7 °F 24.8 °F 70% 30.04 in 10.0 mi WNW 6.9 mph - N/A   Clear
5:15 AM 32.0 °F 25.6 °F 19.4 °F 60% 30.03 in 10.0 mi West 6.9 mph - N/A   Clear
5:35 AM 30.2 °F 24.3 °F 21.2 °F 69% 30.03 in 10.0 mi West 5.8 mph - N/A   Clear
5:55 AM 30.2 °F 23.4 °F 19.4 °F 64% 30.02 in 10.0 mi WSW 6.9 mph - N/A   Clear
6:15 AM 30.2 °F 24.3 °F 19.4 °F 64% 30.03 in 10.0 mi West 5.8 mph - N/A   Clear
6:35 AM 30.2 °F 24.3 °F 19.4 °F 64% 30.03 in 10.0 mi West 5.8 mph - N/A   Clear
6:55 AM 32.0 °F 27.5 °F 21.2 °F 64% 30.03 in 10.0 mi WNW 4.6 mph - N/A   Clear
7:15 AM 33.8 °F 29.6 °F 21.2 °F 60% 30.03 in 10.0 mi NW 4.6 mph - N/A   Clear
7:35 AM 33.8 °F 29.6 °F 24.8 °F 70% 30.03 in 10.0 mi WNW 4.6 mph - N/A   Clear
7:55 AM 37.4 °F 32.8 °F 26.6 °F 65% 30.03 in 10.0 mi West 5.8 mph - N/A   Clear
8:15 AM 42.8 °F 37.5 °F 26.6 °F 53% 30.02 in 10.0 mi WNW 9.2 mph - N/A   Clear
8:35 AM 44.6 °F 40.7 °F 28.4 °F 53% 30.02 in 10.0 mi WNW 6.9 mph - N/A   Clear
8:55 AM 48.2 °F - 30.2 °F 50% 30.01 in 10.0 mi West 9.2 mph - N/A   Clear
9:15 AM 51.8 °F - 30.2 °F 44% 30.01 in 10.0 mi West 13.8 mph - N/A   Clear
9:35 AM 53.6 °F - 30.2 °F 41% 30.01 in 10.0 mi West 13.8 mph - N/A   Clear
9:55 AM 57.2 °F - 32.0 °F 38% 30.00 in 10.0 mi West 15.0 mph - N/A   Clear
10:15 AM 60.8 °F - 30.2 °F 31% 30.00 in 10.0 mi West 16.1 mph - N/A   Clear
10:35 AM 60.8 °F - 30.2 °F 31% 29.99 in 10.0 mi West 16.1 mph 21.9 mph N/A   Clear
10:55 AM 62.6 °F - 30.2 °F 30% 29.99 in 10.0 mi West 12.7 mph 23.0 mph N/A   Clear
11:15 AM 62.6 °F - 28.4 °F 27% 29.98 in 10.0 mi WSW 15.0 mph 19.6 mph N/A   Clear
11:35 AM 64.4 °F - 28.4 °F 26% 29.98 in 10.0 mi WNW 11.5 mph 18.4 mph N/A   Clear
11:55 AM 64.4 °F - 28.4 °F 26% 29.98 in 10.0 mi West 11.5 mph 19.6 mph N/A   Clear
12:15 PM 66.2 °F - 26.6 °F 23% 29.97 in 10.0 mi WNW 15.0 mph 19.6 mph N/A   Clear
12:35 PM 66.2 °F - 26.6 °F 23% 29.97 in 10.0 mi NW 5.8 mph 18.4 mph N/A   Clear
12:55 PM 68.0 °F - 26.6 °F 21% 29.97 in 10.0 mi West 11.5 mph 20.7 mph N/A   Clear
1:15 PM 69.8 °F - 26.6 °F 20% 29.95 in 10.0 mi NNW 9.2 mph - N/A   Clear
1:35 PM 69.8 °F - 26.6 °F 20% 29.94 in 10.0 mi NW 11.5 mph 17.3 mph N/A   Clear
1:55 PM 71.6 °F - 28.4 °F 20% 29.93 in 10.0 mi West 6.9 mph 17.3 mph N/A   Clear
2:15 PM 71.6 °F - 26.6 °F 19% 29.92 in 10.0 mi WSW 15.0 mph 18.4 mph N/A   Clear
2:35 PM 71.6 °F - 26.6 °F 19% 29.91 in 10.0 mi West 9.2 mph 20.7 mph N/A   Clear
2:55 PM 71.6 °F - 26.6 °F 19% 29.91 in 10.0 mi WNW 10.4 mph 20.7 mph N/A   Clear
3:15 PM 73.4 °F - 26.6 °F 18% 29.90 in 10.0 mi WNW 9.2 mph 17.3 mph N/A   Clear
3:35 PM 73.4 °F - 26.6 °F 18% 29.89 in 10.0 mi NW 8.1 mph - N/A   Clear
3:55 PM 73.4 °F - 26.6 °F 18% 29.89 in 10.0 mi NW 6.9 mph - N/A   Clear
4:15 PM 73.4 °F - 28.4 °F 19% 29.88 in 10.0 mi WNW 4.6 mph - N/A   Clear
4:35 PM 75.2 °F - 28.4 °F 18% 29.87 in 10.0 mi West 11.5 mph 16.1 mph N/A   Clear
4:55 PM 75.2 °F - 28.4 °F 18% 29.87 in 10.0 mi West 8.1 mph - N/A   Clear
5:15 PM 75.2 °F - 28.4 °F 18% 29.86 in 10.0 mi West 5.8 mph - N/A   Clear
5:35 PM 75.2 °F - 28.4 °F 18% 29.86 in 10.0 mi WNW 6.9 mph - N/A   Clear
5:55 PM 75.2 °F - 28.4 °F 18% 29.85 in 10.0 mi Calm Calm - N/A   Clear
6:15 PM 75.2 °F - 30.2 °F 19% 29.85 in 10.0 mi WSW 6.9 mph - N/A   Clear
6:35 PM 75.2 °F - 30.2 °F 19% 29.85 in 10.0 mi NW 5.8 mph - N/A   Clear
6:55 PM 75.2 °F - 30.2 °F 19% 29.84 in 10.0 mi WSW 4.6 mph - N/A   Clear
7:15 PM 75.2 °F - 32.0 °F 21% 29.84 in 10.0 mi Calm Calm - N/A   Clear
7:35 PM 73.4 °F - 33.8 °F 23% 29.84 in 10.0 mi Calm Calm - N/A   Clear
7:55 PM 73.4 °F - 33.8 °F 23% 29.84 in 10.0 mi SE 3.5 mph - N/A   Clear
8:15 PM 69.8 °F - 33.8 °F 27% 29.84 in 10.0 mi SE 5.8 mph - N/A   Clear
8:35 PM 66.2 °F - 33.8 °F 30% 29.84 in 10.0 mi SE 8.1 mph - N/A   Clear
8:55 PM 64.4 °F - 33.8 °F 32% 29.84 in 10.0 mi SE 10.4 mph - N/A   Clear
9:15 PM 62.6 °F - 33.8 °F 34% 29.85 in 10.0 mi SE 6.9 mph - N/A   Clear
9:35 PM 60.8 °F - 33.8 °F 36% 29.85 in 10.0 mi SE 6.9 mph - N/A   Clear
9:55 PM 59.0 °F - 33.8 °F 39% 29.85 in 10.0 mi South 5.8 mph - N/A   Clear
10:15 PM 60.8 °F - 32.0 °F 34% 29.86 in 10.0 mi South 4.6 mph - N/A   Clear
10:35 PM 59.0 °F - 32.0 °F 36% 29.86 in 10.0 mi SSW 3.5 mph - N/A   Clear
10:55 PM 57.2 °F - 30.2 °F 36% 29.86 in 10.0 mi SW 6.9 mph - N/A   Clear
11:15 PM 57.2 °F - 30.2 °F 36% 29.86 in 10.0 mi SSW 5.8 mph - N/A   Clear
11:35 PM 57.2 °F - 30.2 °F 36% 29.86 in 10.0 mi Calm Calm - N/A   Clear
11:55 PM 57.2 °F - 30.2 °F 36% 29.86 in 10.0 mi SW 3.5 mph - N/A   Clear